Malaysia Virtual Airlines Airport Information Service

Langkawi Intl

ICAO: WMKL Country: Malaysia
Latitude: 6.32972 Longitude: 99.7286
Latest Arrival : MH1432 (WMKK-WMKL) Latest Departure : MH1433 (WMKL-WMKK)


WX CaptureLIVE
Data provided by noaa.gov | Fetched at 17:04:41

METAR : WMKL 261600Z VRB02KT 9999 FEW026 29/25 Q1010

TAF : WMKL 261100Z 2612/2712 VRB03KT 9999 FEW026 BECMG 2704/2706 24005KT FEW022


Runway Data for WMKL
Data provided by openaviationdata.com

Runway ID Mag Var Hdg Length Elevation Surface ILS Freq ILS Id ILS Slope
3 0 34° 12547 ft 29 ft Asphalt 110.7 ILK 3
21 0 214° 12547 ft 29 ft Asphalt -- -- --

Langkawi Intl, Malaysia
Use only for reference purposes



Not for navigational purposes.